BAW76 LGKR-LIRN

Flight info

Callsign BAW76
Flight time 1h 8m
Altitude 18000
Route TIGRA2B TIGRA L995 TOPNO/N0453F300 L995 EKTOL EKTOL1A
Aircraft A319/M-SDE3FGIJ1KRWXY/LB1

Departure

Time 2026-05-05 12:05
Airport Corfu Ioannis Kapodistrias International Airport (LGKR)

Arrival

Time 2026-05-05 13:13
Airport Naples International Airport (LIRN)
Time Latitude Longitude Altitude Speed Heading
2026-05-05 11:27 39.60667 19.91358 19 ft 0 kts 78°
2026-05-05 11:56 39.60667 19.91355 18 ft 2 kts 79°
2026-05-05 11:57 39.60662 19.91322 18 ft 4 kts 79°
2026-05-05 11:57 39.60656 19.91288 20 ft 4 kts 75°
2026-05-05 11:57 39.60648 19.91256 18 ft 4 kts 60°
2026-05-05 11:57 39.60631 19.91232 20 ft 4 kts 13°
2026-05-05 11:58 39.60624 19.91231 18 ft 0 kts 358°
2026-05-05 12:01 39.60631 19.91230 20 ft 2 kts 358°
2026-05-05 12:02 39.60651 19.91229 18 ft 4 kts 356°
2026-05-05 12:02 39.60695 19.91217 18 ft 8 kts 346°
2026-05-05 12:02 39.60757 19.91200 18 ft 11 kts 349°
2026-05-05 12:02 39.60842 19.91179 18 ft 13 kts 348°
2026-05-05 12:03 39.60940 19.91152 19 ft 15 kts 349°
2026-05-05 12:03 39.61053 19.91123 20 ft 17 kts 349°
2026-05-05 12:03 39.61165 19.91094 19 ft 9 kts 348°
2026-05-05 12:03 39.61214 19.91046 21 ft 10 kts 302°
2026-05-05 12:04 39.61229 19.90992 22 ft 9 kts 264°
2026-05-05 12:04 39.61186 19.90955 21 ft 9 kts 164°
2026-05-05 12:04 39.61175 19.90958 21 ft 0 kts 166°
2026-05-05 12:04 39.61118 19.90974 21 ft 33 kts 169°
2026-05-05 12:05 39.60651 19.91095 18 ft 101 kts 168°
2026-05-05 12:05 39.59775 19.91328 59 ft 150 kts 166°
2026-05-05 12:05 39.58804 19.91636 713 ft 142 kts 156°
2026-05-05 12:05 39.58071 19.92475 1258 ft 143 kts 125°
2026-05-05 12:06 39.57402 19.93447 1776 ft 150 kts 136°
2026-05-05 12:06 39.56561 19.94410 2034 ft 173 kts 140°
2026-05-05 12:06 39.55570 19.95459 2326 ft 196 kts 141°
2026-05-05 12:06 39.54441 19.96627 2737 ft 216 kts 142°
2026-05-05 12:07 39.53251 19.97862 3550 ft 222 kts 142°
2026-05-05 12:07 39.52040 19.99130 4405 ft 226 kts 141°
2026-05-05 12:07 39.50809 20.00427 5253 ft 230 kts 142°
2026-05-05 12:07 39.49565 20.01744 6087 ft 234 kts 141°
2026-05-05 12:08 39.48300 20.03089 6927 ft 237 kts 141°
2026-05-05 12:08 39.47019 20.04456 7756 ft 240 kts 141°
2026-05-05 12:08 39.45740 20.05822 8559 ft 243 kts 141°
2026-05-05 12:08 39.44408 20.07248 9403 ft 247 kts 140°
2026-05-05 12:09 39.43310 20.09030 9874 ft 266 kts 110°
2026-05-05 12:09 39.43129 20.11421 10553 ft 273 kts 78°
2026-05-05 12:09 39.43920 20.13626 11346 ft 274 kts 47°
2026-05-05 12:09 39.45467 20.15013 12181 ft 273 kts 17°
2026-05-05 12:10 39.47345 20.15174 12994 ft 275 kts 347°
2026-05-05 12:10 39.49023 20.14041 13776 ft 277 kts 315°
2026-05-05 12:10 39.50170 20.12026 14557 ft 279 kts 304°
2026-05-05 12:10 39.51221 20.09907 15353 ft 280 kts 303°
2026-05-05 12:11 39.52271 20.07775 16122 ft 281 kts 304°
2026-05-05 12:11 39.53329 20.05635 16871 ft 282 kts 304°
2026-05-05 12:11 39.54394 20.03489 17602 ft 284 kts 304°
2026-05-05 12:11 39.55455 20.01360 18009 ft 285 kts 304°
2026-05-05 12:12 39.56547 19.99171 18118 ft 291 kts 304°
2026-05-05 12:12 39.57674 19.96912 18141 ft 315 kts 304°
2026-05-05 12:12 39.58924 19.94402 18138 ft 339 kts 304°
2026-05-05 12:12 39.60241 19.91756 18137 ft 358 kts 304°
2026-05-05 12:13 39.61366 19.88845 18132 ft 366 kts 288°
2026-05-05 12:13 39.61625 19.85539 18141 ft 372 kts 272°
2026-05-05 12:13 39.61610 19.82181 18139 ft 373 kts 273°
2026-05-05 12:13 39.61882 19.78900 18136 ft 370 kts 284°
2026-05-05 12:14 39.62665 19.75745 18136 ft 367 kts 296°
2026-05-05 12:14 39.63954 19.72859 18135 ft 365 kts 307°
2026-05-05 12:14 39.65472 19.70279 18139 ft 365 kts 308°
2026-05-05 12:14 39.67010 19.67665 18135 ft 365 kts 308°
2026-05-05 12:15 39.68568 19.65008 18139 ft 365 kts 308°
2026-05-05 12:15 39.70080 19.62421 18137 ft 365 kts 308°
2026-05-05 12:15 39.71612 19.59793 18141 ft 365 kts 308°
2026-05-05 12:15 39.73140 19.57163 18139 ft 365 kts 308°
2026-05-05 12:16 39.74690 19.54494 18141 ft 365 kts 308°
2026-05-05 12:16 39.76220 19.51864 18144 ft 365 kts 308°
2026-05-05 12:16 39.77751 19.49233 18142 ft 365 kts 308°
2026-05-05 12:16 39.79276 19.46596 18144 ft 365 kts 308°
2026-05-05 12:17 39.80791 19.43948 18145 ft 364 kts 307°
2026-05-05 12:17 39.82300 19.41300 18142 ft 365 kts 307°
2026-05-05 12:17 39.83806 19.38650 18142 ft 365 kts 307°
2026-05-05 12:17 39.85275 19.36060 18146 ft 365 kts 307°
2026-05-05 12:18 39.86800 19.33368 18146 ft 365 kts 307°
2026-05-05 12:18 39.88308 19.30709 18142 ft 365 kts 307°
2026-05-05 12:18 39.89795 19.28081 18145 ft 365 kts 307°
2026-05-05 12:18 39.91302 19.25423 18146 ft 365 kts 307°
2026-05-05 12:19 39.92831 19.22730 18142 ft 365 kts 307°
2026-05-05 12:19 39.94315 19.20110 18138 ft 364 kts 307°
2026-05-05 12:19 39.95820 19.17448 18139 ft 364 kts 307°
2026-05-05 12:19 39.97324 19.14792 18140 ft 364 kts 307°
2026-05-05 12:20 39.98829 19.12136 18137 ft 364 kts 307°
2026-05-05 12:20 40.00337 19.09477 18136 ft 364 kts 307°
2026-05-05 12:20 40.01839 19.06819 18131 ft 364 kts 307°
2026-05-05 12:20 40.03342 19.04152 18125 ft 365 kts 307°
2026-05-05 12:21 40.04847 19.01487 18127 ft 365 kts 307°
2026-05-05 12:21 40.06352 18.98823 18121 ft 364 kts 307°
2026-05-05 12:21 40.07854 18.96159 18118 ft 365 kts 307°
2026-05-05 12:21 40.09354 18.93488 18117 ft 365 kts 307°
2026-05-05 12:22 40.10855 18.90808 18116 ft 365 kts 306°
2026-05-05 12:22 40.12353 18.88130 18117 ft 366 kts 306°
2026-05-05 12:22 40.13853 18.85449 18118 ft 366 kts 306°
2026-05-05 12:22 40.15357 18.82769 18119 ft 366 kts 306°
2026-05-05 12:23 40.16860 18.80086 18119 ft 365 kts 306°
2026-05-05 12:23 40.18358 18.77402 18120 ft 366 kts 306°
2026-05-05 12:23 40.19859 18.74715 18121 ft 366 kts 306°
2026-05-05 12:23 40.21360 18.72034 18122 ft 366 kts 306°
2026-05-05 12:24 40.22861 18.69347 18124 ft 365 kts 306°
2026-05-05 12:24 40.24362 18.66658 18125 ft 366 kts 306°
2026-05-05 12:24 40.25862 18.63969 18131 ft 366 kts 306°
2026-05-05 12:24 40.27360 18.61280 18128 ft 366 kts 306°
2026-05-05 12:25 40.28858 18.58590 18125 ft 366 kts 306°
2026-05-05 12:25 40.30358 18.55894 18122 ft 366 kts 306°
2026-05-05 12:25 40.31854 18.53199 18122 ft 365 kts 306°
2026-05-05 12:25 40.33347 18.50503 18121 ft 365 kts 306°
2026-05-05 12:26 40.34839 18.47811 18119 ft 365 kts 306°
2026-05-05 12:26 40.36331 18.45119 18118 ft 365 kts 306°
2026-05-05 12:26 40.37827 18.42424 18117 ft 365 kts 306°
2026-05-05 12:26 40.39325 18.39733 18116 ft 365 kts 306°
2026-05-05 12:27 40.40822 18.37040 18116 ft 365 kts 306°
2026-05-05 12:27 40.42317 18.34351 18122 ft 365 kts 306°
2026-05-05 12:27 40.43811 18.31659 18139 ft 365 kts 306°
2026-05-05 12:27 40.45305 18.28963 18132 ft 365 kts 306°
2026-05-05 12:28 40.46802 18.26264 18128 ft 365 kts 306°
2026-05-05 12:28 40.48298 18.23562 18121 ft 366 kts 306°
2026-05-05 12:28 40.49790 18.20863 18120 ft 365 kts 306°
2026-05-05 12:28 40.51282 18.18158 18117 ft 365 kts 306°
2026-05-05 12:29 40.52769 18.15453 18114 ft 365 kts 306°
2026-05-05 12:29 40.54256 18.12743 18110 ft 365 kts 306°
2026-05-05 12:29 40.55740 18.10035 18107 ft 365 kts 306°
2026-05-05 12:29 40.57223 18.07325 18105 ft 365 kts 306°
2026-05-05 12:30 40.58707 18.04616 18103 ft 365 kts 306°
2026-05-05 12:30 40.60162 18.01884 18108 ft 365 kts 301°
2026-05-05 12:30 40.61271 17.98883 18123 ft 365 kts 290°
2026-05-05 12:30 40.61958 17.95664 18116 ft 366 kts 284°
2026-05-05 12:31 40.62553 17.92452 18111 ft 366 kts 284°
2026-05-05 12:31 40.63155 17.89200 18108 ft 366 kts 284°
2026-05-05 12:31 40.63758 17.85945 18109 ft 366 kts 284°
2026-05-05 12:31 40.64362 17.82692 18104 ft 366 kts 284°
2026-05-05 12:32 40.64972 17.79433 18103 ft 366 kts 284°
2026-05-05 12:32 40.65583 17.76180 18103 ft 366 kts 284°
2026-05-05 12:32 40.66193 17.72930 18103 ft 366 kts 284°
2026-05-05 12:32 40.66799 17.69676 18106 ft 366 kts 284°
2026-05-05 12:33 40.67401 17.66419 18109 ft 366 kts 284°
2026-05-05 12:33 40.68000 17.63167 18116 ft 366 kts 284°
2026-05-05 12:33 40.68599 17.59912 18126 ft 366 kts 284°
2026-05-05 12:33 40.69198 17.56653 18122 ft 366 kts 284°
2026-05-05 12:34 40.69794 17.53390 18119 ft 366 kts 284°
2026-05-05 12:34 40.70388 17.50127 18121 ft 366 kts 284°
2026-05-05 12:34 40.70982 17.46868 18127 ft 366 kts 284°
2026-05-05 12:34 40.71581 17.43604 18125 ft 367 kts 284°
2026-05-05 12:35 40.72187 17.40337 18124 ft 366 kts 284°
2026-05-05 12:35 40.72795 17.37076 18122 ft 366 kts 284°
2026-05-05 12:35 40.73404 17.33812 18122 ft 367 kts 284°
2026-05-05 12:35 40.74011 17.30547 18122 ft 366 kts 284°
2026-05-05 12:36 40.74612 17.27283 18122 ft 366 kts 284°
2026-05-05 12:36 40.75210 17.24022 18128 ft 366 kts 284°
2026-05-05 12:36 40.75807 17.20756 18144 ft 366 kts 284°
2026-05-05 12:36 40.76403 17.17496 18133 ft 366 kts 284°
2026-05-05 12:37 40.77000 17.14236 18131 ft 366 kts 283°
2026-05-05 12:37 40.77595 17.10975 18125 ft 366 kts 283°
2026-05-05 12:37 40.78187 17.07707 18123 ft 366 kts 283°
2026-05-05 12:37 40.78777 17.04439 18124 ft 366 kts 283°
2026-05-05 12:38 40.79366 17.01177 18124 ft 366 kts 283°
2026-05-05 12:38 40.79958 16.97913 18123 ft 365 kts 283°
2026-05-05 12:38 40.80551 16.94652 18122 ft 365 kts 283°
2026-05-05 12:38 40.81139 16.91392 18121 ft 365 kts 283°
2026-05-05 12:39 40.81726 16.88134 18120 ft 366 kts 283°
2026-05-05 12:39 40.82313 16.84868 18120 ft 365 kts 283°
2026-05-05 12:39 40.82893 16.81602 18120 ft 365 kts 283°
2026-05-05 12:39 40.83466 16.78339 18120 ft 365 kts 283°
2026-05-05 12:40 40.84040 16.75068 18119 ft 365 kts 283°
2026-05-05 12:40 40.84611 16.71801 18118 ft 365 kts 283°
2026-05-05 12:40 40.85183 16.68535 18119 ft 365 kts 283°
2026-05-05 12:40 40.85757 16.65267 18119 ft 365 kts 283°
2026-05-05 12:41 40.86330 16.62008 18119 ft 365 kts 283°
2026-05-05 12:41 40.86904 16.58743 18119 ft 364 kts 283°
2026-05-05 12:41 40.87476 16.55481 18118 ft 365 kts 283°
2026-05-05 12:41 40.88046 16.52217 18119 ft 365 kts 282°
2026-05-05 12:42 40.88613 16.48951 18120 ft 365 kts 282°
2026-05-05 12:42 40.89179 16.45685 18120 ft 364 kts 282°
2026-05-05 12:42 40.89739 16.42421 18120 ft 364 kts 282°
2026-05-05 12:42 40.90300 16.39155 18120 ft 365 kts 282°
2026-05-05 12:43 40.90864 16.35890 18119 ft 364 kts 282°
2026-05-05 12:43 40.91428 16.32625 18121 ft 364 kts 282°
2026-05-05 12:43 40.91993 16.29361 18124 ft 364 kts 282°
2026-05-05 12:43 40.92556 16.26096 18124 ft 364 kts 282°
2026-05-05 12:44 40.93117 16.22834 18123 ft 364 kts 282°
2026-05-05 12:44 40.93675 16.19573 18122 ft 364 kts 282°
2026-05-05 12:44 40.94223 16.16354 18122 ft 363 kts 282°
2026-05-05 12:44 40.94785 16.13053 18121 ft 363 kts 282°
2026-05-05 12:45 40.95331 16.09837 18118 ft 363 kts 282°
2026-05-05 12:45 40.95888 16.06577 18115 ft 363 kts 282°
2026-05-05 12:45 40.96444 16.03320 18113 ft 363 kts 282°
2026-05-05 12:45 40.96819 16.01120 18112 ft 363 kts 282°
2026-05-05 12:46 40.97373 15.97865 18108 ft 363 kts 282°
2026-05-05 12:46 40.98102 15.93552 18110 ft 362 kts 282°
2026-05-05 12:46 40.98650 15.90301 18110 ft 362 kts 282°
2026-05-05 12:46 40.99018 15.88109 18111 ft 361 kts 281°
2026-05-05 12:47 40.99563 15.84860 18110 ft 361 kts 281°
2026-05-05 12:47 41.00110 15.81615 18106 ft 361 kts 281°
2026-05-05 12:47 41.00656 15.78367 18106 ft 361 kts 281°
2026-05-05 12:47 41.01202 15.75120 18107 ft 362 kts 281°
2026-05-05 12:48 41.01746 15.71866 18106 ft 362 kts 281°
2026-05-05 12:48 41.02286 15.68618 18105 ft 361 kts 281°
2026-05-05 12:48 41.02828 15.65368 18103 ft 361 kts 281°
2026-05-05 12:48 41.03370 15.62125 18100 ft 361 kts 281°
2026-05-05 12:49 41.03912 15.58870 18100 ft 361 kts 281°
2026-05-05 12:49 41.04452 15.55619 18104 ft 362 kts 281°
2026-05-05 12:49 41.04991 15.52366 18106 ft 361 kts 281°
2026-05-05 12:49 41.05530 15.49117 18108 ft 361 kts 281°
2026-05-05 12:50 41.06067 15.45866 18114 ft 361 kts 281°
2026-05-05 12:50 41.06601 15.42615 18117 ft 361 kts 281°
2026-05-05 12:50 41.07137 15.39356 18122 ft 362 kts 281°
2026-05-05 12:50 41.07672 15.36104 18125 ft 362 kts 281°
2026-05-05 12:51 41.08208 15.32848 18131 ft 362 kts 281°
2026-05-05 12:51 41.08741 15.29589 18130 ft 361 kts 281°
2026-05-05 12:51 41.09271 15.26335 18134 ft 362 kts 281°
2026-05-05 12:51 41.09796 15.23093 17965 ft 355 kts 280°
2026-05-05 12:52 41.09979 15.19868 17488 ft 349 kts 266°
2026-05-05 12:52 41.09538 15.16733 17016 ft 345 kts 252°
2026-05-05 12:52 41.08537 15.13940 16796 ft 339 kts 239°
2026-05-05 12:52 41.07086 15.11489 16541 ft 338 kts 231°
2026-05-05 12:53 41.05551 15.09134 16277 ft 337 kts 231°
2026-05-05 12:53 41.04027 15.06787 16018 ft 335 kts 231°
2026-05-05 12:53 41.02511 15.04453 15759 ft 334 kts 231°
2026-05-05 12:53 41.00996 15.02125 15500 ft 333 kts 231°
2026-05-05 12:54 40.97977 14.97495 14990 ft 331 kts 231°
2026-05-05 12:54 40.96472 14.95194 14736 ft 330 kts 230°
2026-05-05 12:54 40.94973 14.92909 14478 ft 328 kts 230°
2026-05-05 12:55 40.93478 14.90625 14229 ft 327 kts 230°
2026-05-05 12:55 40.91988 14.88351 13978 ft 327 kts 230°
2026-05-05 12:55 40.90503 14.86088 13733 ft 325 kts 230°
2026-05-05 12:55 40.89021 14.83834 13482 ft 324 kts 230°
2026-05-05 12:56 40.87693 14.81439 13226 ft 322 kts 239°
2026-05-05 12:56 40.86521 14.78917 12966 ft 321 kts 239°
2026-05-05 12:56 40.85371 14.76456 12798 ft 308 kts 239°
2026-05-05 12:56 40.84259 14.74097 12662 ft 296 kts 239°
2026-05-05 12:57 40.83189 14.71837 12547 ft 285 kts 238°
2026-05-05 12:57 40.82163 14.69645 12415 ft 276 kts 242°
2026-05-05 12:57 40.81679 14.67279 12286 ft 266 kts 271°
2026-05-05 12:57 40.82233 14.65011 12160 ft 262 kts 303°
2026-05-05 12:58 40.83599 14.63440 11961 ft 263 kts 324°
2026-05-05 12:58 40.85139 14.62173 11715 ft 260 kts 325°
2026-05-05 12:58 40.86675 14.60929 11522 ft 260 kts 325°
2026-05-05 12:58 40.88280 14.59822 11306 ft 263 kts 341°
2026-05-05 12:59 40.90104 14.59764 11109 ft 269 kts 12°
2026-05-05 12:59 40.91724 14.60984 10942 ft 273 kts 46°
2026-05-05 12:59 40.92792 14.63057 10801 ft 274 kts 59°
2026-05-05 13:00 40.94782 14.67356 10475 ft 273 kts 58°
2026-05-05 13:00 40.95780 14.69479 10312 ft 272 kts 58°
2026-05-05 13:01 40.98754 14.75832 9843 ft 270 kts 58°
2026-05-05 13:01 40.99736 14.77941 9692 ft 268 kts 58°
2026-05-05 13:01 41.00718 14.80038 9538 ft 268 kts 58°
2026-05-05 13:01 41.01698 14.82135 9389 ft 267 kts 58°
2026-05-05 13:02 41.02672 14.84222 9220 ft 266 kts 58°
2026-05-05 13:02 41.03898 14.86014 9050 ft 260 kts 31°
2026-05-05 13:02 41.05569 14.86689 8822 ft 248 kts 358°
2026-05-05 13:02 41.07178 14.86177 8658 ft 233 kts 329°
2026-05-05 13:03 41.08534 14.85091 8513 ft 224 kts 327°
2026-05-05 13:03 41.09823 14.84031 8408 ft 212 kts 326°
2026-05-05 13:03 41.11029 14.82958 8226 ft 206 kts 315°
2026-05-05 13:03 41.11805 14.81408 8100 ft 203 kts 288°
2026-05-05 13:04 41.11953 14.79591 7981 ft 198 kts 262°
2026-05-05 13:04 41.11481 14.77896 7872 ft 197 kts 238°
2026-05-05 13:04 41.10756 14.76359 7759 ft 197 kts 238°
2026-05-05 13:04 41.10034 14.74821 7645 ft 196 kts 238°
2026-05-05 13:05 41.09315 14.73291 7529 ft 195 kts 238°
2026-05-05 13:05 41.08600 14.71766 7406 ft 193 kts 238°
2026-05-05 13:05 41.07890 14.70251 7301 ft 195 kts 238°
2026-05-05 13:05 41.07181 14.68737 7181 ft 194 kts 239°
2026-05-05 13:06 41.06474 14.67218 7073 ft 193 kts 238°
2026-05-05 13:06 41.05771 14.65706 6938 ft 193 kts 239°
2026-05-05 13:06 41.05059 14.64178 6520 ft 195 kts 239°
2026-05-05 13:06 41.04346 14.62647 6134 ft 195 kts 238°
2026-05-05 13:07 41.03635 14.61126 5767 ft 193 kts 238°
2026-05-05 13:07 41.02930 14.59620 5404 ft 192 kts 238°
2026-05-05 13:07 41.02236 14.58135 5234 ft 188 kts 238°
2026-05-05 13:07 41.01546 14.56659 5191 ft 189 kts 238°
2026-05-05 13:08 41.00849 14.55168 5040 ft 192 kts 238°
2026-05-05 13:08 41.00150 14.53672 4743 ft 190 kts 238°
2026-05-05 13:08 40.99462 14.52201 4457 ft 187 kts 238°
2026-05-05 13:08 40.98778 14.50735 4182 ft 188 kts 238°
2026-05-05 13:09 40.98090 14.49266 3896 ft 187 kts 238°
2026-05-05 13:09 40.97406 14.47812 3612 ft 186 kts 238°
2026-05-05 13:09 40.96723 14.46360 3340 ft 182 kts 238°
2026-05-05 13:09 40.96075 14.44977 3066 ft 171 kts 237°
2026-05-05 13:10 40.95461 14.43667 2829 ft 166 kts 237°
2026-05-05 13:10 40.94860 14.42388 2588 ft 163 kts 237°
2026-05-05 13:10 40.94274 14.41139 2345 ft 151 kts 237°
2026-05-05 13:10 40.93751 14.40025 2130 ft 136 kts 237°
2026-05-05 13:11 40.93265 14.38989 1940 ft 131 kts 236°
2026-05-05 13:11 40.92796 14.37992 1750 ft 128 kts 236°
2026-05-05 13:11 40.92329 14.36998 1566 ft 127 kts 236°
2026-05-05 13:11 40.91865 14.36010 1380 ft 126 kts 236°
2026-05-05 13:12 40.91404 14.35028 1187 ft 125 kts 236°
2026-05-05 13:12 40.90942 14.34038 1015 ft 125 kts 236°
2026-05-05 13:12 40.90490 14.33074 846 ft 125 kts 236°
2026-05-05 13:12 40.90018 14.32092 634 ft 125 kts 236°
2026-05-05 13:13 40.89562 14.31115 434 ft 125 kts 236°
2026-05-05 13:13 40.89109 14.30152 280 ft 125 kts 236°
2026-05-05 13:13 40.88684 14.29275 258 ft 97 kts 238°
2026-05-05 13:13 40.88427 14.28708 280 ft 44 kts 238°
2026-05-05 13:14 40.88316 14.28512 287 ft 23 kts 222°
2026-05-05 13:14 40.88223 14.28420 290 ft 10 kts 208°
2026-05-05 13:14 40.88156 14.28373 289 ft 11 kts 208°
2026-05-05 13:14 40.88106 14.28338 291 ft 6 kts 207°
2026-05-05 13:15 40.88070 14.28297 294 ft 8 kts 247°
2026-05-05 13:15 40.88062 14.28228 295 ft 7 kts 253°
2026-05-05 13:15 40.88037 14.28176 296 ft 6 kts 235°
2026-05-05 13:15 40.88015 14.28140 299 ft 4 kts 225°
2026-05-05 13:16 40.87980 14.28117 299 ft 9 kts 200°
2026-05-05 13:16 40.87930 14.28073 303 ft 9 kts 226°
2026-05-05 13:16 40.87889 14.28006 302 ft 10 kts 231°
2026-05-05 13:16 40.87859 14.27959 304 ft 2 kts 231°
2026-05-05 13:17 40.87855 14.27951 305 ft 1 kts 231°
2026-05-05 13:17 40.87850 14.27944 304 ft 1 kts 232°
2026-05-05 13:17 40.87845 14.27941 306 ft 1 kts 204°
2026-05-05 13:17 40.87831 14.27950 306 ft 4 kts 139°
2026-05-05 13:18 40.87799 14.27985 306 ft 5 kts 140°
2026-05-05 13:18 40.87778 14.28006 304 ft 2 kts 141°
2026-05-05 13:18 40.87774 14.28011 303 ft 0 kts 141°